Location: *
(38.9555°S, 57.3572°E)
Time: 00:08:05
(UTC+00:00)

Meteor 2-8 Rocket - Pass Details

Date: 15 July 2020
Orbit: 936 x 958 km, 82.5° (Epoch: 06 August)

Event Time Altitude Azimuth Distance (km) Brightness Sun altitude
Rises 14:26:21 0° 3° (N) 3,588 7.6 -15.1°
Reaches altitude 10° 14:28:50 10° 5° (N) 2,650 6.9 -15.5°
Maximum altitude 14:34:49 67° 86° (E) 1,024 4.4 -16.7°
Drops below altitude 10° 14:40:53 10° 167° (SSE) 2,681 6.5 -17.8°
Sets 14:43:24 0° 169° (S) 3,633 7.3 -18.3°
